DW0033 Weather Reports


Display with metric or nautical units.
time (UTC)temp
F
wind
direction
speed
MPH
gust
MPH
rain 1hr
in
rain 24hr
in
rain mn
in
humidity
%
barometer
mb
20260502201559 51 260 4.0 10.0 0.00 0.03 0.03 78 1008.7
20260502200135 53 295 1.0 6.0 0.00 0.03 0.03 73 1008.6
20260502194608 55 307 3.0 7.0 0.00 0.03 0.03 68 1008.4
20260502193058 54 184 0.0 7.0 0.00 0.03 0.03 63 1008.7
20260502191607 54 217 1.0 7.0 0.00 0.03 0.03 64 1008.8
20260502190057 54 123 1.0 10.0 0.00 0.03 0.03 63 1008.8
20260502184559 55 147 2.0 10.0 0.00 0.03 0.03 62 1008.8
20260502183104 56 218 1.0 11.0 0.00 0.03 0.03 59 1008.8
20260502181555 57 139 2.0 10.0 0.00 0.03 0.03 63 1008.8
20260502163041 52 191 1.0 11.0 0.00 0.03 0.03 77 1009.8
20260502161542 52 115 2.0 6.0 0.00 0.03 0.03 78 1010.2
20260502151530 49 159 2.0 4.0 0.00 0.03 0.03 92 1010.4
20260502123024 46 158 0.0 2.0 0.01 0.03 0.03 95 1011.0
20260502121523 46 248 0.0 2.0 0.01 0.02 0.02 94 1010.9
20260502114520 46 29 0.0 2.0 0.02 0.02 0.02 94 1010.4
20260502113020 46 342 0.0 2.0 0.02 0.02 0.02 94 1010.8
20260502111518 46 306 0.0 3.0 0.01 0.01 0.01 93 1010.4
20260502110017 46 191 0.0 2.0 0.00 0.00 0.00 92 1010.0
20260502104517 46 311 0.0 2.0 0.00 0.00 0.00 92 1009.9
20260502103036 46 281 0.0 2.0 0.00 0.00 0.00 91 1009.9
20260502101516 46 325 0.0 1.0 0.00 0.00 0.00 91 1009.7
20260502091512 46 348 0.0 2.0 0.00 0.00 0.00 87 1009.5
20260502071503 47 155 0.0 4.0 0.00 0.00 0.00 73 1009.8
20260502070002 47 351 0.0 1.0 0.00 0.00 0.00 73 1009.7
20260502064600 47 184 0.0 3.0 0.00 0.00 0.00 73 1010.4
20260502063124 46 160 0.0 2.0 0.00 0.00 0.00 73 1009.9
20260502061558 46 196 0.0 2.0 0.00 0.00 0.00 72 1009.8
20260502060106 45 249 0.0 2.0 0.00 0.00 0.00 72 1009.8
20260502054612 45 249 0.0 0.0 0.00 0.00 0.00 73 1009.9
20260502053101 45 249 0.0 0.0 0.00 0.00 0.00 73 1010.0
20260502051553 45 249 0.0 2.0 0.00 0.00 0.00 72 1009.9
20260502050053 45 249 0.0 2.0 0.00 0.00 0.00 70 1009.9
20260502044553 45 249 0.0 2.0 0.00 0.00 0.00 69 1009.9
20260502043057 45 249 0.0 0.0 0.00 0.00 0.00 68 1010.2
20260502041547 45 249 0.0 2.0 0.00 0.00 0.00 68 1010.3
20260502040051 45 249 0.0 2.0 0.00 0.00 0.00 68 1010.2
20260502034547 45 244 0.0 1.0 0.00 0.00 0.00 67 1010.3
20260502033045 45 244 0.0 0.0 0.00 0.00 0.00 67 1010.3
20260502031544 45 246 0.0 2.0 0.00 0.00 0.00 66 1010.1
20260502030055 45 291 0.0 2.0 0.00 0.00 0.00 68 1009.9
20260502024544 45 291 0.0 0.0 0.00 0.00 0.00 66 1009.9
20260502023044 46 291 0.0 2.0 0.00 0.00 0.00 65 1009.9
20260502021542 46 291 0.0 2.0 0.00 0.00 0.00 63 1009.9
20260502020041 46 294 0.0 1.0 0.00 0.00 0.00 61 1009.9
20260502014540 47 294 0.0 2.0 0.00 0.00 0.00 58 1009.8
20260502013039 48 299 0.0 0.0 0.00 0.00 0.00 56 1009.7
20260502011538 49 299 0.0 2.0 0.00 0.00 0.00 55 1009.4
20260502010042 50 299 0.0 0.0 0.00 0.00 0.00 51 1009.4
20260502004537 51 299 0.0 2.0 0.00 0.00 0.00 52 1009.3
20260502003037 52 319 0.0 2.0 0.00 0.00 0.00 47 1008.9
20260502001536 53 299 1.0 1.0 0.00 0.00 0.00 45 1008.7
20260502000036 54 276 0.0 2.0 0.00 0.00 0.00 39 1008.4
20260501234537 55 271 0.0 2.0 0.00 0.00 0.00 37 1008.3
20260501233046 56 158 0.0 2.0 0.00 0.00 0.00 35 1008.0
20260501231535 57 9 0.0 4.0 0.00 0.00 0.00 35 1007.8
20260501230034 58 313 0.0 4.0 0.00 0.00 0.00 32 1007.8
20260501224534 59 306 1.0 7.0 0.00 0.00 0.00 33 1007.8
20260501223039 60 258 1.0 9.0 0.00 0.00 0.00 30 1007.8
20260501221535 62 39 2.0 11.0 0.00 0.00 0.00 28 1007.7
20260501220032 63 309 3.0 9.0 0.00 0.00 0.00 28 1007.7
20260501214535 64 327 1.0 7.0 0.00 0.00 0.00 27 1007.4
20260501213030 63 284 2.0 8.0 0.00 0.00 0.00 31 1007.4
20260501211547 62 240 3.0 13.0 0.00 0.00 0.00 27 1007.3
20260501210037 64 277 1.0 6.0 0.00 0.00 0.00 29 1007.3
20260501204529 63 206 4.0 11.0 0.00 0.00 0.00 29 1007.2
20260501203031 63 279 4.0 11.0 0.00 0.00 0.00 30 1007.1